Location: *
(56.5000°S, 143.0000°W)
Time: 23:14:34
(UTC+00:00)

Daily predictions for brighter satellites

Satellite Brightness Start Highest point End
(mag) Time Altitude Azimuth Time Altitude Azimuth Time Altitude Azimuth
Cosmos 1378 3.1 12:01:01 10° SSW 12:04:53 90° ENE 12:08:14 13° N
Cosmos 1371 Rocket 4.4 12:03:25 18° N 12:07:13 60° ENE 12:12:25 10° SSE
Cosmos 1733 Rocket 4.5 12:05:56 19° W 12:07:43 25° WSW 12:11:24 10° S
Lacrosse 5 rocket 1.6 12:05:11 10° W 12:09:53 86° S 12:14:30 10° E
Cosmos 1025 Rocket 3.3 12:07:27 10° S 12:11:57 73° ESE 12:16:20 10° NNE
Cosmos 389 Rocket 3.7 12:09:48 10° S 12:13:20 44° ESE 12:16:47 10° NE
Aureole 3 Rocket 2.9 12:12:02 23° NNW 12:14:38 64° WSW 12:18:11 10° S
Cosmos 1709 Rocket 3.9 12:10:14 10° SSW 12:16:24 70° W 12:22:32 10° N
Okean 2 Rocket 3.3 12:13:48 15° N 12:17:29 74° E 12:22:01 10° SSE
IDEFIX/ARIANE 42P 2.5 12:13:14 10° NNE 12:18:28 76° WNW 12:23:47 10° SSW
CSL-04 DEB 4.4 12:14:30 10° SSE 12:18:31 66° WSW 12:20:56 23° NW
Cosmos 2084 Rocket 4.5 12:18:33 12° W 12:22:17 42° SSW 12:26:26 10° ESE
Cosmos 1603 4.0 12:18:36 10° SW 12:24:22 74° SE 12:30:01 10° NE
SL-16 R/B 2.4 12:19:19 10° SW 12:24:49 48° WNW 12:30:16 10° N
Sich 1 Rocket 3.7 12:22:29 20° NNW 12:25:35 63° WSW 12:30:08 10° S
Cosmos 1300 Rocket 4.0 12:21:31 10° N 12:25:55 64° E 12:30:20 10° SSE
MSX 3.8 12:23:02 10° NNE 12:28:52 84° WNW 12:34:48 10° SSW
Cosmos 1850 Rocket 4.2 12:25:34 10° SSW 12:31:01 83° ESE 12:36:23 10° NNE
ERS-2 3.1 12:28:25 10° S 12:31:51 34° WSW 12:33:53 20° WNW
Cosmos 1536 Rocket 3.6 12:28:37 10° SSW 12:33:09 69° W 12:37:33 10° N
ATLAS CENTAUR R/B 1.0 12:32:07 22° NW 12:34:22 86° NE 12:38:11 10° SE
Unknown 3.3 12:34:06 25° NW 12:35:21 41° N 12:38:09 10° ENE
Cosmos 2227 Rocket 2.2 12:33:16 16° NNW 12:37:55 90° NE 12:43:41 10° SE
CZ-2C R/B 4.1 12:38:31 19° NW 12:40:06 24° W 12:43:24 10° SW
Unknown 3.7 12:39:00 21° NW 12:40:41 38° NNE 12:43:42 10° E
Cosmos 1954 Rocket 4.3 12:35:55 10° SW 12:41:03 46° WNW 12:46:10 10° N
COSMOS 2441 4.3 12:36:17 10° NNE 12:41:10 81° WNW 12:46:06 10° SSW
H-2A R/B 2.6 12:37:44 10° N 12:42:18 70° WNW 12:46:53 10° SSW
Cosmos 2297 Rocket 2.2 12:38:33 16° NW 12:43:18 82° SW 12:49:05 10° SE
Cosmos 2082 3.9 12:38:08 12° NNW 12:43:23 72° ENE 12:49:08 10° SE
Cosmos 1743 3.2 12:41:45 17° NW 12:44:26 46° WSW 12:48:15 10° S
MOZ.5/SAFIR/RUBIN 5/SL-8 3.8 12:40:02 10° SSE 12:44:53 78° WSW 12:49:32 10° NNW
CZ-4B R/B 4.3 12:43:24 10° SE 12:46:01 19° E 12:48:37 10° NE
Iridium 2 3.7 12:42:34 10° N 12:46:26 84° W 12:50:20 10° S
SeaSat 1 2.4 12:41:38 10° NNE 12:46:38 84° NW 12:51:40 10° SW
Cosmos 1140 Rocket 4.3 12:44:50 10° SW 12:49:30 32° WNW 12:54:09 10° NNW
Gbstr 26 Del rocket 4.4 12:45:13 14° NW 12:50:44 47° NNE 12:56:06 10° E
Cosmos 909 Rocket 4.2 12:45:08 10° SW 12:51:26 64° NW 12:58:42 10° NNE
Meteor 1-21 4.4 12:46:33 10° SSW 12:52:11 53° W 12:57:40 10° N
Cosmos 2074 Rocket 4.1 12:46:57 10° SSW 12:53:23 84° W 12:59:45 10° N
SL-4 R/B 2.6 12:54:09 13° WNW 12:57:31 39° N 13:01:39 10° ENE
USA 215 3.5 12:51:40 10° NE 12:58:01 49° NW 13:04:26 10° WSW
Cosmos 1943 3.3 12:54:32 10° SW 13:00:18 89° NW 13:06:03 10° NNE
RESURS DK-1 4.1 12:58:12 10° WSW 13:00:39 15° WNW 13:02:19 13° NW
ALOS 4.1 12:56:32 10° NE 13:00:52 37° ESE 13:05:15 10° S
Cosmos 2056 Rocket 3.6 12:57:31 11° NW 13:02:32 72° WSW 13:07:58 10° SSE
Meteor 2-9 Rocket 4.4 12:56:40 10° NNW 13:02:33 83° WSW 13:08:34 10° SSE
Cosmos 1707 2.7 12:59:03 10° SSW 13:03:02 80° WNW 13:06:58 10° N
SL-08 R/B 3.8 12:59:25 10° SSE 13:04:25 65° ENE 13:09:16 10° N
Cosmos 1842 4.2 13:01:41 10° SSW 13:05:15 31° W 13:08:47 10° NNW
CZ-2C R/B 2.3 13:00:42 10° N 13:05:34 69° WNW 13:10:21 10° SSW
Meteor 1-12 Rocket 4.5 12:59:50 10° N 13:05:54 85° ENE 13:11:57 10° SSE
Cosmos 1818 3.9 13:01:51 10° NNW 13:07:12 65° NE 13:12:35 10° SE
PSLV R/B 4.3 13:03:27 10° NNW 13:07:18 32° W 13:11:15 10° SSW
Cosmos 1624 Rocket 4.2 13:03:20 11° NW 13:08:33 65° WSW 13:13:54 10° SSE
CZ-4C R/B 2.4 13:03:07 10° SW 13:09:31 80° SE 13:14:48 10° ENE
SL-16 R/B 2.6 13:03:57 10° SSE 13:10:12 72° WSW 13:16:25 10° NNW
ADEOS 4.4 13:07:19 10° NNW 13:12:00 31° W 13:16:43 10° SSW
Okean O Rocket 2.9 13:09:41 10° NE 13:13:54 46° ESE 13:18:10 10° S
Cosmos 2237 Rocket 4.0 13:13:55 10° W 13:14:51 10° W 13:15:47 10° WNW
Cosmos 2151 Rocket 3.9 13:10:38 10° NNW 13:15:05 54° WSW 13:19:35 10° S
CZ-4B R/B 2.7 13:13:41 10° N 13:17:19 63° WNW 13:21:07 10° SSW
Cosmos 1741 Rocket 4.2 13:13:43 10° SW 13:18:52 51° WNW 13:24:00 10° N
FALCON 9 DEB 4.2 13:16:02 10° NW 13:19:19 35° NNE 13:22:37 10° E
GEOS 3 Rocket 3.8 13:14:00 10° SE 13:19:20 75° SW 13:24:35 10° WNW
Okean 1-7 Rocket 3.8 13:16:42 10° S 13:21:14 80° ESE 13:25:41 10° NNE
Cosmos 2219 4.0 13:16:03 10° WNW 13:21:28 42° SW 13:26:57 10° SSE
Unknown 4.1 13:18:17 10° NW 13:21:34 37° NNE 13:24:51 10° E
PSLV R/B 3.9 13:19:04 10° NNE 13:23:00 88° W 13:27:06 10° SSW
In-Cosmos 22 4.1 13:17:37 10° SSW 13:23:10 85° WNW 13:28:33 10° N
CZ-4C R/B 2.8 13:20:17 10° SSE 13:23:37 83° WSW 13:26:51 10° NNW
Lacrosse 5 2.0 13:18:42 10° W 13:23:55 86° S 13:29:08 10° E
Cosmos 2315 Rocket 4.4 13:18:41 10° NW 13:24:54 49° WSW 13:31:10 10° S
UNK 4.4 13:21:21 10° S 13:25:51 42° WSW 13:30:17 10° NW
Cosmos 1975 3.9 13:23:01 10° NW 13:26:36 29° WSW 13:30:13 10° S
FENGYUN 3A 4.4 13:21:39 10° NE 13:27:02 62° ESE 13:32:27 10° SSW
Meteor 1-4 Rocket 3.0 13:23:58 10° SSW 13:27:41 46° W 13:31:20 10° N
Unknown 4.2 13:24:30 10° NW 13:27:49 36° NNE 13:31:09 10° E
Cosmos 1674 3.6 13:26:29 10° S 13:30:23 56° ESE 13:34:11 10° NNE
H-2A R/B 2.4 13:32:05 10° S 13:36:08 47° WSW 13:40:09 10° NW
Nadezhda 1 Rocket 4.2 13:32:06 10° N 13:38:25 87° E 13:44:43 10° SSE
